{"data":{"norad_id":60573,"intl_designator":"2024-149DK","name":"ION SCV-012","alt_names":[],"object_type":"PAYLOAD","status":"ACTIVE","operator":null,"country":"IT","launch_date":"2024-08-16","launch_site_code":"AFWTR","launch_vehicle":null,"mission":null,"orbit_class":"UNKNOWN","rcs_meters":null,"size_class":null,"mass_kg":null,"dimensions":null,"purposes":[],"wikipedia_slug":null,"has_3d_model":false,"image_url":null,"decayed_at":null,"tle_current":{"epoch":"2026-05-25T03:26:29.729760Z","epoch_age_seconds":69537,"freshness":"FRESH","line1":"1 60573U 24149DK  26145.14339965  .00001095  00000+0  10566-3 0  9994","line2":"2 60573  97.6780 219.6488 0004196 140.4330 219.7197 14.94878474 96471","mean_motion":14.94878474,"eccentricity":0.0004196,"inclination_deg":97.678,"raan_deg":219.6488,"arg_perigee_deg":140.433,"mean_anomaly_deg":219.7197,"bstar":0.00010566,"rev_number":9647,"period_min":96.32890064614,"perigee_km":579.82919376411,"apogee_km":585.67077011935,"semimajor_km":6960.8869819417,"source":"CELESTRAK","updated_at":"2026-05-25T13:38:02.155633Z"}}}